TimeEST,TemperatureF,Dew PointF,Humidity,Sea Level PressureIn,VisibilityMPH,Wind Direction,Wind SpeedMPH,Gust SpeedMPH,PrecipitationIn,Events,Conditions,WindDirDegrees,DateUTC
12:13 AM,33.8,30.2,87,30.04,10.0,West,17.3,21.9,N/A,,Overcast,280,2013-01-14 05:13:00
12:34 AM,33.8,30.2,87,30.05,10.0,West,17.3,25.3,N/A,,Overcast,280,2013-01-14 05:34:00
12:54 AM,33.8,28.4,81,30.06,10.0,West,16.1,-,N/A,,Overcast,280,2013-01-14 05:54:00
1:14 AM,32.0,26.6,80,30.07,10.0,West,13.8,20.7,N/A,,Overcast,260,2013-01-14 06:14:00
1:34 AM,32.0,26.6,80,30.08,10.0,West,19.6,25.3,N/A,,Overcast,270,2013-01-14 06:34:00
1:54 AM,32.0,24.8,75,30.09,10.0,West,21.9,25.3,N/A,,Overcast,280,2013-01-14 06:54:00
2:14 AM,32.0,26.6,80,30.10,10.0,WNW,11.5,19.6,N/A,,Overcast,290,2013-01-14 07:14:00
2:34 AM,30.2,26.6,86,30.13,10.0,WNW,16.1,-,N/A,,Overcast,290,2013-01-14 07:34:00
2:54 AM,30.2,26.6,86,30.14,10.0,West,15.0,-,N/A,,Overcast,260,2013-01-14 07:54:00
3:55 AM,28.4,24.8,86,30.17,10.0,West,17.3,23.0,N/A,,Overcast,270,2013-01-14 08:55:00
4:15 AM,28.4,24.8,86,30.18,10.0,West,18.4,21.9,N/A,,Overcast,280,2013-01-14 09:15:00
4:35 AM,28.4,23.0,80,30.19,10.0,West,17.3,23.0,N/A,,Overcast,280,2013-01-14 09:35:00
5:15 AM,28.4,23.0,80,30.20,10.0,West,12.7,-,N/A,,Overcast,280,2013-01-14 10:15:00
5:35 AM,26.6,21.2,80,30.22,10.0,West,15.0,23.0,N/A,,Overcast,270,2013-01-14 10:35:00
5:55 AM,26.6,21.2,80,30.23,10.0,WNW,17.3,25.3,N/A,,Overcast,290,2013-01-14 10:55:00
6:36 AM,26.6,21.2,80,30.26,10.0,West,11.5,18.4,N/A,,Overcast,270,2013-01-14 11:36:00
6:51 AM,26.6,21.2,80,30.26,10.0,West,16.1,-,N/A,,Overcast,280,2013-01-14 11:51:00
7:11 AM,26.6,21.2,80,30.27,10.0,NW,16.1,19.6,N/A,,Overcast,310,2013-01-14 12:11:00
7:31 AM,26.6,21.2,80,30.28,10.0,NW,15.0,-,N/A,,Overcast,310,2013-01-14 12:31:00
7:51 AM,26.6,19.4,74,30.29,10.0,NW,13.8,19.6,N/A,,Overcast,310,2013-01-14 12:51:00
8:11 AM,26.6,19.4,74,30.30,10.0,West,11.5,-,N/A,,Overcast,280,2013-01-14 13:11:00
8:51 AM,26.6,19.4,74,30.33,10.0,West,12.7,-,N/A,,Overcast,280,2013-01-14 13:51:00
9:11 AM,26.6,19.4,74,30.34,10.0,West,11.5,-,N/A,,Overcast,270,2013-01-14 14:11:00
9:31 AM,26.6,19.4,74,30.35,10.0,West,9.2,-,N/A,,Overcast,270,2013-01-14 14:31:00
9:51 AM,26.6,21.2,80,30.37,10.0,West,10.4,-,N/A,,Overcast,270,2013-01-14 14:51:00
10:12 AM,26.6,21.2,80,30.37,10.0,West,8.1,-,N/A,,Overcast,270,2013-01-14 15:12:00
10:32 AM,26.6,19.4,74,30.37,10.0,NW,10.4,-,N/A,,Overcast,320,2013-01-14 15:32:00
10:52 AM,26.6,19.4,74,30.37,10.0,WNW,10.4,-,N/A,,Overcast,300,2013-01-14 15:52:00
11:12 AM,26.6,19.4,74,30.37,10.0,NW,8.1,-,N/A,,Overcast,310,2013-01-14 16:12:00
11:32 AM,26.6,19.4,74,30.36,10.0,NW,9.2,-,N/A,,Overcast,320,2013-01-14 16:32:00
11:52 AM,26.6,17.6,69,30.35,10.0,WNW,6.9,-,N/A,,Overcast,300,2013-01-14 16:52:00
12:12 PM,26.6,17.6,69,30.34,10.0,WNW,5.8,-,N/A,,Overcast,290,2013-01-14 17:12:00
12:32 PM,26.6,17.6,69,30.33,10.0,WNW,3.5,-,N/A,,Overcast,300,2013-01-14 17:32:00
12:52 PM,26.6,17.6,69,30.33,10.0,West,6.9,-,N/A,,Overcast,280,2013-01-14 17:52:00
1:13 PM,26.6,19.4,74,30.32,10.0,North,8.1,-,N/A,,Overcast,350,2013-01-14 18:13:00
1:33 PM,26.6,17.6,69,30.34,10.0,NW,4.6,-,N/A,,Overcast,310,2013-01-14 18:33:00
1:53 PM,26.6,17.6,69,30.35,10.0,West,6.9,-,N/A,,Overcast,260,2013-01-14 18:53:00
2:13 PM,26.6,17.6,69,30.36,10.0,WSW,5.8,-,N/A,,Overcast,250,2013-01-14 19:13:00
2:33 PM,26.6,17.6,69,30.35,10.0,WNW,8.1,-,N/A,,Overcast,290,2013-01-14 19:33:00
2:53 PM,26.6,17.6,69,30.36,10.0,West,4.6,-,N/A,,Overcast,270,2013-01-14 19:53:00
3:13 PM,26.6,17.6,69,30.37,10.0,West,5.8,-,N/A,,Overcast,280,2013-01-14 20:13:00
3:33 PM,26.6,17.6,69,30.37,10.0,West,4.6,-,N/A,,Overcast,280,2013-01-14 20:33:00
3:54 PM,26.6,19.4,74,30.39,10.0,West,5.8,-,N/A,,Overcast,260,2013-01-14 20:54:00
4:34 PM,26.6,17.6,69,30.41,10.0,WNW,4.6,-,N/A,,Overcast,290,2013-01-14 21:34:00
4:54 PM,26.6,19.4,74,30.42,10.0,WSW,4.6,-,N/A,,Overcast,250,2013-01-14 21:54:00
5:14 PM,26.6,19.4,74,30.41,10.0,West,5.8,-,N/A,,Overcast,270,2013-01-14 22:14:00
5:34 PM,26.6,19.4,74,30.41,10.0,West,5.8,-,N/A,,Overcast,270,2013-01-14 22:34:00
5:54 PM,26.6,19.4,74,30.42,10.0,WSW,4.6,-,N/A,,Overcast,240,2013-01-14 22:54:00
6:14 PM,26.6,19.4,74,30.41,10.0,West,5.8,-,N/A,,Overcast,270,2013-01-14 23:14:00
6:34 PM,26.6,19.4,74,30.41,10.0,West,4.6,-,N/A,,Overcast,270,2013-01-14 23:34:00
6:54 PM,26.6,19.4,74,30.41,10.0,WNW,5.8,-,N/A,,Overcast,300,2013-01-14 23:54:00
7:15 PM,26.6,19.4,74,30.39,10.0,WNW,5.8,-,N/A,,Mostly Cloudy,300,2013-01-15 00:15:00
7:35 PM,26.6,19.4,74,30.38,10.0,NW,4.6,-,N/A,,Scattered Clouds,310,2013-01-15 00:35:00
7:55 PM,26.6,19.4,74,30.38,10.0,NW,5.8,-,N/A,,Scattered Clouds,310,2013-01-15 00:55:00
8:15 PM,26.6,21.2,80,30.38,10.0,NW,4.6,-,N/A,,Scattered Clouds,310,2013-01-15 01:15:00
8:35 PM,26.6,19.4,74,30.38,10.0,NW,4.6,-,N/A,,Clear,310,2013-01-15 01:35:00
8:55 PM,26.6,19.4,74,30.37,10.0,NW,5.8,-,N/A,,Scattered Clouds,310,2013-01-15 01:55:00
9:15 PM,24.8,19.4,80,30.37,10.0,NW,5.8,-,N/A,,Mostly Cloudy,320,2013-01-15 02:15:00
9:35 PM,24.8,19.4,80,30.37,10.0,Calm,Calm,-,N/A,,Scattered Clouds,0,2013-01-15 02:35:00
9:55 PM,24.8,19.4,80,30.38,10.0,Calm,Calm,-,N/A,,Clear,0,2013-01-15 02:55:00
10:15 PM,24.8,19.4,80,30.37,10.0,Calm,Calm,-,N/A,,Clear,0,2013-01-15 03:15:00
10:31 PM,24.8,19.4,80,30.36,10.0,Calm,Calm,-,N/A,,Clear,0,2013-01-15 03:31:00
10:51 PM,23.0,19.4,86,30.36,10.0,Calm,Calm,-,N/A,,Clear,0,2013-01-15 03:51:00
11:11 PM,23.0,21.2,93,30.37,10.0,Calm,Calm,-,N/A,,Clear,0,2013-01-15 04:11:00
11:31 PM,23.0,19.4,86,30.37,10.0,Calm,Calm,-,N/A,,Clear,0,2013-01-15 04:31:00
11:51 PM,21.2,21.2,100,30.38,10.0,Calm,Calm,-,N/A,,Clear,0,2013-01-15 04:51:00